Location: North Evanston
(42.0634°N, 87.6976°W)
Time: 23:54:17
(UTC+00:00)

Transit 2A Rocket - All Passes

Search period start: 11 May 2026 00:00
Search period end: 21 May 2026 00:00
Orbit: 587 x 895 km, 66.7° (Epoch: 11 May)

Date Brightness Start Highest point End Pass type
(mag) Time Alt. Az. Time Alt. Az. Time Alt. Az.
11 May - 00:33:01 10° SSE 00:37:26 23° ESE 00:41:39 10° ENE daylight
11 May - 02:13:52 10° SW 02:19:30 56° NW 02:24:44 10° NNE visible
11 May - 04:00:58 10° WNW 04:02:56 12° NW 04:04:50 10° NNW visible
11 May - 09:15:11 10° N 09:18:19 18° NE 09:21:19 10° E visible
11 May - 10:56:38 10° NW 11:01:06 61° WSW 11:05:20 10° SSE daylight
11 May - 23:49:51 10° SE 23:52:02 12° ESE 23:54:10 10° E daylight
12 May - 01:27:57 10° SSW 01:33:44 85° ESE 01:39:06 10° NNE visible
12 May - 03:12:54 10° W 03:16:41 18° NW 03:20:18 10° N visible
12 May - 08:30:53 10° NNE 08:32:04 11° NE 08:33:13 10° NE visible
12 May - 10:10:51 10° NNW 10:15:25 66° ENE 10:19:42 10° SE daylight
12 May - 11:55:26 10° W 11:57:01 12° WSW 11:58:34 10° SW daylight
13 May - 00:42:33 10° S 00:48:04 48° ESE 00:53:14 10° NE daylight
13 May - 02:25:45 10° WSW 02:30:37 29° NW 02:35:10 10° N visible
13 May - 09:25:21 10° NNW 09:29:34 34° NE 09:33:32 10° ESE visible
13 May - 11:08:04 10° NW 11:11:40 24° WSW 11:15:07 10° SSW daylight
13 May - 23:57:47 10° SSE 00:02:30 27° ESE 00:07:00 10° NE daylight
14 May - 01:39:11 10° SW 01:44:40 48° NW 01:49:47 10° NNE visible
14 May - 03:27:33 10° NW 03:28:14 10° NW 03:28:54 10° NNW visible
14 May - 08:40:07 10° N 08:43:32 20° NE 08:46:47 10° E visible
14 May - 10:21:49 10° NW 10:26:10 49° WSW 10:30:18 10° S daylight
14 May - 23:14:02 10° SE 23:17:04 15° ESE 23:20:00 10° ENE daylight
15 May - 00:53:08 10° SSW 00:58:52 83° WNW 01:04:12 10° NNE daylight
15 May - 02:38:36 10° W 02:41:56 16° NW 02:45:09 10° N visible
15 May - 07:55:26 10° NNE 07:57:20 12° NE 07:59:11 10° ENE visible
15 May - 09:35:58 10° NNW 09:40:32 81° ENE 09:44:48 10° SSE visible
16 May - 00:07:34 10° SSW 00:13:10 57° ESE 00:18:24 10° NE daylight
16 May - 01:51:15 10° WSW 01:55:49 25° NW 02:00:08 10° N visible
16 May - 08:50:24 10° NNW 08:54:43 41° NE 08:58:47 10° SE visible
16 May - 10:33:28 10° WNW 10:36:40 20° WSW 10:39:47 10° SSW daylight
16 May - 23:22:36 10° S 23:27:35 31° ESE 23:32:18 10° NE daylight
17 May - 01:04:32 10° WSW 01:09:51 41° NW 01:14:48 10° NNE daylight
17 May - 08:05:05 10° N 08:08:44 23° NE 08:12:13 10° E visible
17 May - 09:47:02 10° NW 09:51:13 40° WSW 09:55:13 10° S visible
17 May - 22:38:29 10° SSE 22:42:06 17° ESE 22:45:35 10° ENE daylight
18 May - 00:18:20 10° SW 00:24:01 71° WNW 00:29:17 10° NNE daylight
18 May - 02:04:24 10° WNW 02:07:12 14° NW 02:09:55 10° N visible
18 May - 07:20:11 10° N 07:22:35 14° NE 07:24:55 10° ENE visible
18 May - 09:01:06 10° NNW 09:05:36 84° WSW 09:09:53 10° SSE visible
18 May - 23:32:37 10° SSW 23:38:17 67° ESE 23:43:33 10° NE daylight
19 May - 01:16:48 10° W 01:21:02 22° NW 01:25:04 10° N daylight
19 May - 08:15:27 10° NNW 08:19:51 49° NE 08:24:01 10° SE visible
19 May - 09:58:57 10° WNW 10:01:39 16° WSW 10:04:19 10° SW daylight
19 May - 22:47:28 10° S 22:52:40 37° ESE 22:57:31 10° NE daylight
20 May - 00:29:55 10° WSW 00:35:02 35° NW 00:39:48 10° NNE daylight
20 May - 07:30:03 10° N 07:33:55 27° NE 07:37:36 10° ESE visible
20 May - 09:12:16 10° NW 09:16:15 32° WSW 09:20:04 10° S visible
20 May - 22:03:04 10° SSE 22:07:09 21° ESE 22:11:03 10° ENE daylight
20 May - 23:43:34 10° SW 23:49:09 60° WNW 23:54:20 10° NNE daylight
